Time,TemperatureF,DewpointF,PressureIn,WindDirection,WindDirectionDegrees,WindSpeedMPH,WindSpeedGustMPH,Humidity,HourlyPrecipIn,Conditions,Clouds,dailyrainin,SolarRadiationWatts/m^2,SoftwareType,DateUTC
2013-10-05 00:01:00,71.6,70.7,29.96,SE,145,0.0,0.0,97,0.00,,,0.00,0,Wunderground v.1.15,2013-10-05 05:01:00,
2013-10-05 00:06:00,71.6,70.7,29.96,SE,144,0.0,0.0,97,0.00,,,0.00,0,Wunderground v.1.15,2013-10-05 05:06:00,
2013-10-05 00:12:00,71.6,70.7,29.96,SE,143,0.0,0.0,97,0.00,,,0.00,0,Wunderground v.1.15,2013-10-05 05:12:00,
2013-10-05 00:17:00,71.6,70.7,29.96,SE,142,0.0,1.0,97,0.00,,,0.00,0,Wunderground v.1.15,2013-10-05 05:17:00,
2013-10-05 00:22:00,71.7,70.8,29.96,SE,142,0.0,0.0,97,0.00,,,0.00,0,Wunderground v.1.15,2013-10-05 05:22:00,
2013-10-05 00:28:00,71.7,70.8,29.96,SE,142,0.0,2.0,97,0.00,,,0.00,0,Wunderground v.1.15,2013-10-05 05:28:00,
2013-10-05 00:33:00,71.7,70.8,29.95,ESE,112,0.0,0.0,97,0.00,,,0.00,0,Wunderground v.1.15,2013-10-05 05:33:00,
2013-10-05 00:38:00,71.7,70.8,29.95,ESE,111,0.0,2.0,97,0.00,,,0.00,0,Wunderground v.1.15,2013-10-05 05:38:00,
2013-10-05 00:43:00,71.9,71.0,29.96,ESE,113,0.0,0.0,97,0.00,,,0.00,0,Wunderground v.1.15,2013-10-05 05:43:00,
2013-10-05 00:48:00,71.9,71.0,29.95,ESE,111,0.0,2.0,97,0.00,,,0.00,0,Wunderground v.1.15,2013-10-05 05:48:00,
2013-10-05 00:53:00,72.0,71.1,29.95,ESE,111,0.0,0.0,97,0.00,,,0.00,0,Wunderground v.1.15,2013-10-05 05:53:00,
2013-10-05 00:58:00,71.9,71.0,29.96,ESE,111,0.0,0.0,97,0.00,,,0.00,0,Wunderground v.1.15,2013-10-05 05:58:00,
2013-10-05 01:03:00,71.9,71.0,29.96,ESE,111,0.0,0.0,97,0.00,,,0.00,0,Wunderground v.1.15,2013-10-05 06:03:00,
2013-10-05 01:08:00,72.0,71.1,29.96,ESE,113,0.0,0.0,97,0.00,,,0.00,0,Wunderground v.1.15,2013-10-05 06:08:00,
2013-10-05 01:13:00,71.9,71.0,29.95,ESE,113,0.0,0.0,97,0.00,,,0.00,0,Wunderground v.1.15,2013-10-05 06:13:00,
2013-10-05 01:18:00,71.9,71.0,29.95,ESE,113,0.0,0.0,97,0.00,,,0.00,0,Wunderground v.1.15,2013-10-05 06:18:00,
2013-10-05 01:24:00,72.0,71.1,29.96,ESE,113,0.0,2.0,97,0.00,,,0.00,0,Wunderground v.1.15,2013-10-05 06:24:00,
2013-10-05 01:29:00,72.0,71.1,29.95,ESE,113,0.0,2.0,97,0.00,,,0.00,0,Wunderground v.1.15,2013-10-05 06:29:00,
2013-10-05 01:34:00,72.0,71.1,29.95,ESE,113,0.0,2.0,97,0.00,,,0.00,0,Wunderground v.1.15,2013-10-05 06:34:00,
2013-10-05 01:39:00,72.0,71.1,29.95,ESE,113,0.0,2.0,97,0.00,,,0.00,0,Wunderground v.1.15,2013-10-05 06:39:00,
2013-10-05 01:44:00,72.0,71.1,29.95,ESE,113,0.0,0.0,97,0.00,,,0.00,0,Wunderground v.1.15,2013-10-05 06:44:00,
2013-10-05 01:50:00,72.0,71.1,29.95,ESE,113,0.0,0.0,97,0.00,,,0.00,0,Wunderground v.1.15,2013-10-05 06:50:00,
2013-10-05 01:55:00,72.0,71.1,29.95,ESE,114,0.0,0.0,97,0.00,,,0.00,0,Wunderground v.1.15,2013-10-05 06:55:00,
2013-10-05 02:01:00,71.9,71.0,29.95,ESE,113,0.0,0.0,97,0.00,,,0.00,0,Wunderground v.1.15,2013-10-05 07:01:00,
2013-10-05 02:06:00,71.8,70.9,29.95,ESE,113,0.0,0.0,97,0.00,,,0.00,0,Wunderground v.1.15,2013-10-05 07:06:00,
2013-10-05 02:11:00,71.7,70.8,29.95,ESE,113,0.0,0.0,97,0.00,,,0.00,0,Wunderground v.1.15,2013-10-05 07:11:00,
2013-10-05 02:16:00,71.7,70.8,29.95,ESE,113,0.0,0.0,97,0.00,,,0.00,0,Wunderground v.1.15,2013-10-05 07:16:00,
2013-10-05 02:21:00,71.7,71.1,29.95,ESE,113,0.0,0.0,98,0.00,,,0.00,0,Wunderground v.1.15,2013-10-05 07:21:00,
2013-10-05 02:26:00,71.6,70.7,29.95,ESE,113,0.0,0.0,97,0.00,,,0.00,0,Wunderground v.1.15,2013-10-05 07:26:00,
2013-10-05 02:31:00,71.5,70.6,29.95,ESE,113,0.0,0.0,97,0.00,,,0.00,0,Wunderground v.1.15,2013-10-05 07:31:00,
2013-10-05 02:36:00,71.5,70.6,29.94,ESE,113,0.0,0.0,97,0.00,,,0.00,0,Wunderground v.1.15,2013-10-05 07:36:00,
2013-10-05 02:42:00,71.4,70.5,29.95,ESE,113,0.0,0.0,97,0.00,,,0.00,0,Wunderground v.1.15,2013-10-05 07:42:00,
2013-10-05 02:47:00,71.3,70.7,29.94,ESE,113,0.0,0.0,98,0.00,,,0.00,0,Wunderground v.1.15,2013-10-05 07:47:00,
2013-10-05 02:52:00,71.3,70.7,29.94,ESE,113,0.0,0.0,98,0.00,,,0.00,0,Wunderground v.1.15,2013-10-05 07:52:00,
2013-10-05 02:57:00,71.2,70.6,29.94,ESE,113,0.0,0.0,98,0.00,,,0.00,0,Wunderground v.1.15,2013-10-05 07:57:00,
2013-10-05 03:03:00,71.1,70.5,29.94,ESE,113,0.0,0.0,98,0.00,,,0.00,0,Wunderground v.1.15,2013-10-05 08:03:00,
2013-10-05 03:08:00,71.0,70.4,29.94,ESE,113,0.0,0.0,98,0.00,,,0.00,0,Wunderground v.1.15,2013-10-05 08:08:00,
2013-10-05 03:13:00,70.9,70.3,29.93,ESE,113,0.0,0.0,98,0.00,,,0.00,0,Wunderground v.1.15,2013-10-05 08:13:00,
2013-10-05 03:18:00,70.9,70.3,29.93,ESE,113,0.0,0.0,98,0.00,,,0.00,0,Wunderground v.1.15,2013-10-05 08:18:00,
2013-10-05 03:23:00,70.8,70.2,29.93,ESE,113,0.0,0.0,98,0.00,,,0.00,0,Wunderground v.1.15,2013-10-05 08:23:00,
2013-10-05 03:28:00,70.8,70.2,29.93,ESE,113,0.0,0.0,98,0.00,,,0.00,0,Wunderground v.1.15,2013-10-05 08:28:00,
2013-10-05 03:34:00,70.8,70.2,29.93,ESE,113,0.0,0.0,98,0.00,,,0.00,0,Wunderground v.1.15,2013-10-05 08:34:00,
2013-10-05 03:40:00,70.8,70.2,29.93,ESE,113,0.0,0.0,98,0.00,,,0.00,0,Wunderground v.1.15,2013-10-05 08:40:00,
2013-10-05 03:45:00,70.9,70.3,29.93,ESE,113,0.0,0.0,98,0.00,,,0.00,0,Wunderground v.1.15,2013-10-05 08:45:00,
2013-10-05 03:50:00,71.0,70.4,29.93,ESE,113,0.0,0.0,98,0.00,,,0.00,0,Wunderground v.1.15,2013-10-05 08:50:00,
2013-10-05 03:55:00,71.1,70.5,29.93,ESE,113,0.0,0.0,98,0.00,,,0.00,0,Wunderground v.1.15,2013-10-05 08:55:00,
2013-10-05 04:01:00,71.2,70.6,29.93,ESE,114,0.0,0.0,98,0.00,,,0.00,0,Wunderground v.1.15,2013-10-05 09:01:00,
2013-10-05 04:06:00,71.3,70.7,29.93,ESE,114,0.0,0.0,98,0.00,,,0.00,0,Wunderground v.1.15,2013-10-05 09:06:00,
2013-10-05 04:11:00,71.4,70.8,29.93,ESE,114,0.0,0.0,98,0.00,,,0.00,0,Wunderground v.1.15,2013-10-05 09:11:00,
2013-10-05 04:16:00,71.5,70.9,29.93,ESE,114,0.0,0.0,98,0.00,,,0.00,0,Wunderground v.1.15,2013-10-05 09:16:00,
2013-10-05 04:21:00,71.7,71.1,29.93,ESE,115,0.0,0.0,98,0.00,,,0.00,0,Wunderground v.1.15,2013-10-05 09:21:00,
2013-10-05 04:26:00,71.9,71.6,29.93,ESE,111,0.0,1.0,99,0.00,,,0.00,0,Wunderground v.1.15,2013-10-05 09:26:00,
2013-10-05 04:31:00,72.1,71.8,29.93,ESE,111,0.0,0.0,99,0.00,,,0.00,0,Wunderground v.1.15,2013-10-05 09:31:00,
2013-10-05 04:36:00,72.2,71.6,29.93,ESE,102,0.0,0.0,98,0.00,,,0.00,0,Wunderground v.1.15,2013-10-05 09:36:00,
2013-10-05 04:41:00,72.3,71.7,29.93,SE,133,0.0,0.0,98,0.00,,,0.00,0,Wunderground v.1.15,2013-10-05 09:41:00,
2013-10-05 04:46:00,72.4,72.1,29.93,SE,133,0.0,0.0,99,0.00,,,0.00,0,Wunderground v.1.15,2013-10-05 09:46:00,
2013-10-05 04:51:00,72.6,72.3,29.93,SE,132,0.0,0.0,99,0.00,,,0.00,0,Wunderground v.1.15,2013-10-05 09:51:00,
2013-10-05 04:56:00,72.7,72.4,29.93,SE,132,0.0,0.0,99,0.00,,,0.00,0,Wunderground v.1.15,2013-10-05 09:56:00,
2013-10-05 05:01:00,72.7,72.4,29.93,SE,132,0.0,0.0,99,0.00,,,0.00,0,Wunderground v.1.15,2013-10-05 10:01:00,
2013-10-05 05:06:00,72.9,72.6,29.93,SE,132,0.0,0.0,99,0.00,,,0.00,0,Wunderground v.1.15,2013-10-05 10:06:00,
2013-10-05 05:11:00,72.9,72.6,29.94,SE,132,0.0,0.0,99,0.00,,,0.00,0,Wunderground v.1.15,2013-10-05 10:11:00,
2013-10-05 05:16:00,73.0,72.7,29.94,SE,131,0.0,0.0,99,0.00,,,0.00,0,Wunderground v.1.15,2013-10-05 10:16:00,
2013-10-05 05:21:00,73.1,72.8,29.94,SE,131,0.0,0.0,99,0.00,,,0.00,0,Wunderground v.1.15,2013-10-05 10:21:00,
2013-10-05 05:26:00,73.1,72.8,29.94,SE,131,0.0,0.0,99,0.00,,,0.00,0,Wunderground v.1.15,2013-10-05 10:26:00,
2013-10-05 05:32:00,73.2,72.9,29.94,SE,127,0.0,3.0,99,0.00,,,0.00,0,Wunderground v.1.15,2013-10-05 10:32:00,
2013-10-05 05:37:00,73.3,73.0,29.94,SE,127,0.0,3.0,99,0.00,,,0.00,0,Wunderground v.1.15,2013-10-05 10:37:00,
2013-10-05 05:42:00,73.3,73.0,29.95,SE,127,0.0,0.0,99,0.00,,,0.00,0,Wunderground v.1.15,2013-10-05 10:42:00,
2013-10-05 05:47:00,73.3,73.0,29.95,SE,125,0.0,0.0,99,0.00,,,0.00,0,Wunderground v.1.15,2013-10-05 10:47:00,
2013-10-05 05:52:00,73.3,73.0,29.95,ENE,78,0.0,0.0,99,0.00,,,0.00,0,Wunderground v.1.15,2013-10-05 10:52:00,
2013-10-05 05:57:00,73.4,73.1,29.95,East,90,0.0,0.0,99,0.00,,,0.00,0,Wunderground v.1.15,2013-10-05 10:57:00,
2013-10-05 06:02:00,73.3,73.0,29.95,South,178,0.0,0.0,99,0.00,,,0.00,0,Wunderground v.1.15,2013-10-05 11:02:00,
2013-10-05 06:07:00,73.3,73.0,29.95,South,177,0.0,0.0,99,0.00,,,0.00,0,Wunderground v.1.15,2013-10-05 11:07:00,
2013-10-05 06:12:00,73.2,72.9,29.96,SE,146,0.0,0.0,99,0.00,,,0.00,0,Wunderground v.1.15,2013-10-05 11:12:00,
2013-10-05 06:17:00,73.1,72.8,29.95,SE,146,0.0,0.0,99,0.00,,,0.00,0,Wunderground v.1.15,2013-10-05 11:17:00,
2013-10-05 06:22:00,73.1,72.8,29.95,SE,146,0.0,0.0,99,0.00,,,0.00,0,Wunderground v.1.15,2013-10-05 11:22:00,
2013-10-05 06:27:00,73.0,72.7,29.95,SE,146,0.0,0.0,99,0.00,,,0.00,0,Wunderground v.1.15,2013-10-05 11:27:00,
2013-10-05 06:33:00,73.0,72.7,29.95,SE,146,0.0,0.0,99,0.00,,,0.00,0,Wunderground v.1.15,2013-10-05 11:33:00,
2013-10-05 06:39:00,72.9,72.6,29.96,SE,146,0.0,0.0,99,0.00,,,0.00,0,Wunderground v.1.15,2013-10-05 11:39:00,
2013-10-05 06:44:00,72.9,72.6,29.96,SE,146,0.0,0.0,99,0.00,,,0.00,0,Wunderground v.1.15,2013-10-05 11:44:00,
2013-10-05 06:50:00,72.9,72.6,29.96,SE,146,0.0,0.0,99,0.00,,,0.00,0,Wunderground v.1.15,2013-10-05 11:50:00,
2013-10-05 06:55:00,73.0,72.7,29.96,SE,146,0.0,0.0,99,0.00,,,0.00,0,Wunderground v.1.15,2013-10-05 11:55:00,
2013-10-05 07:00:00,73.0,72.7,29.97,SE,125,0.0,0.0,99,0.00,,,0.00,0,Wunderground v.1.15,2013-10-05 12:00:00,
2013-10-05 07:05:00,73.0,72.7,29.96,SE,125,0.0,0.0,99,0.00,,,0.00,0,Wunderground v.1.15,2013-10-05 12:05:00,
2013-10-05 07:10:00,73.1,72.8,29.96,SE,128,0.0,0.0,99,0.00,,,0.00,5,Wunderground v.1.15,2013-10-05 12:10:00,
2013-10-05 07:15:00,73.1,72.8,29.96,SE,128,0.0,0.0,99,0.00,,,0.00,5,Wunderground v.1.15,2013-10-05 12:15:00,
2013-10-05 07:21:00,73.1,72.8,29.96,SE,128,0.0,0.0,99,0.00,,,0.00,9,Wunderground v.1.15,2013-10-05 12:21:00,
2013-10-05 07:26:00,73.2,72.9,29.96,SE,128,0.0,0.0,99,0.00,,,0.00,12,Wunderground v.1.15,2013-10-05 12:26:00,
2013-10-05 07:31:00,73.2,72.9,29.97,SE,128,0.0,0.0,99,0.00,,,0.00,25,Wunderground v.1.15,2013-10-05 12:31:00,
2013-10-05 07:36:00,73.2,72.9,29.97,SE,128,0.0,0.0,99,0.00,,,0.00,21,Wunderground v.1.15,2013-10-05 12:36:00,
2013-10-05 07:42:00,73.3,73.0,29.97,ESE,122,0.0,4.0,99,0.00,,,0.00,28,Wunderground v.1.15,2013-10-05 12:42:00,
2013-10-05 07:48:00,73.3,73.0,29.97,ESE,119,0.0,4.0,99,0.00,,,0.00,39,Wunderground v.1.15,2013-10-05 12:48:00,
2013-10-05 07:53:00,73.4,73.1,29.97,ESE,119,0.0,0.0,99,0.00,,,0.00,37,Wunderground v.1.15,2013-10-05 12:53:00,
2013-10-05 07:58:00,73.4,73.1,29.97,ESE,117,0.0,1.0,99,0.00,,,0.00,53,Wunderground v.1.15,2013-10-05 12:58:00,
2013-10-05 08:03:00,73.5,73.2,29.96,ESE,117,0.0,0.0,99,0.00,,,0.00,81,Wunderground v.1.15,2013-10-05 13:03:00,
2013-10-05 08:08:00,73.6,73.3,29.96,ESE,117,0.0,0.0,99,0.00,,,0.00,81,Wunderground v.1.15,2013-10-05 13:08:00,
2013-10-05 08:13:00,73.7,73.4,29.97,ESE,117,0.0,0.0,99,0.00,,,0.00,72,Wunderground v.1.15,2013-10-05 13:13:00,
2013-10-05 08:18:00,73.7,73.4,29.97,ESE,117,0.0,0.0,99,0.00,,,0.00,62,Wunderground v.1.15,2013-10-05 13:18:00,
2013-10-05 08:23:00,73.8,73.5,29.96,SE,137,0.0,3.0,99,0.00,,,0.00,81,Wunderground v.1.15,2013-10-05 13:23:00,
2013-10-05 08:29:00,73.9,73.6,29.96,ESE,106,0.0,3.0,99,0.00,,,0.00,109,Wunderground v.1.15,2013-10-05 13:29:00,
2013-10-05 08:35:00,74.0,73.7,29.97,ESE,117,0.0,2.0,99,0.00,,,0.00,105,Wunderground v.1.15,2013-10-05 13:35:00,
2013-10-05 08:40:00,74.0,73.4,29.97,ESE,111,0.0,0.0,98,0.00,,,0.00,116,Wunderground v.1.15,2013-10-05 13:40:00,
2013-10-05 08:45:00,74.1,73.5,29.97,ESE,111,0.0,0.0,98,0.00,,,0.00,142,Wunderground v.1.15,2013-10-05 13:45:00,
2013-10-05 08:50:00,74.3,73.7,29.97,SE,142,0.0,0.0,98,0.00,,,0.00,209,Wunderground v.1.15,2013-10-05 13:50:00,
2013-10-05 08:55:00,74.6,73.7,29.97,ESE,102,0.0,0.0,97,0.00,,,0.00,158,Wunderground v.1.15,2013-10-05 13:55:00,
2013-10-05 09:00:00,74.8,73.9,29.97,ESE,106,0.0,0.0,97,0.00,,,0.00,114,Wunderground v.1.15,2013-10-05 14:00:00,
2013-10-05 09:05:00,75.1,73.9,29.97,ESE,115,0.0,0.0,96,0.00,,,0.00,169,Wunderground v.1.15,2013-10-05 14:05:00,
2013-10-05 09:10:00,75.4,73.9,29.96,SE,138,0.0,0.0,95,0.00,,,0.00,213,Wunderground v.1.15,2013-10-05 14:10:00,
2013-10-05 09:15:00,75.6,73.8,29.97,East,79,0.0,0.0,94,0.00,,,0.00,163,Wunderground v.1.15,2013-10-05 14:15:00,
2013-10-05 09:20:00,75.9,74.0,29.97,East,90,0.0,0.0,94,0.00,,,0.00,341,Wunderground v.1.15,2013-10-05 14:20:00,
2013-10-05 09:25:00,76.2,74.0,29.97,East,93,0.0,0.0,93,0.00,,,0.00,146,Wunderground v.1.15,2013-10-05 14:25:00,
2013-10-05 09:30:00,76.2,74.0,29.97,ESE,116,0.0,0.0,93,0.00,,,0.00,130,Wunderground v.1.15,2013-10-05 14:30:00,
2013-10-05 09:35:00,76.4,74.2,29.97,SE,136,1.0,7.0,93,0.00,,,0.00,432,Wunderground v.1.15,2013-10-05 14:35:00,
2013-10-05 09:40:00,76.6,74.4,29.97,ESE,114,1.0,1.0,93,0.00,,,0.00,287,Wunderground v.1.15,2013-10-05 14:40:00,
2013-10-05 09:45:00,76.8,74.3,29.98,SE,125,1.0,11.0,92,0.00,,,0.00,174,Wunderground v.1.15,2013-10-05 14:45:00,
2013-10-05 09:50:00,76.8,74.3,29.97,ESE,104,1.0,1.0,92,0.00,,,0.00,318,Wunderground v.1.15,2013-10-05 14:50:00,
2013-10-05 09:55:00,77.1,74.3,29.97,SE,146,1.0,4.0,91,0.00,,,0.00,309,Wunderground v.1.15,2013-10-05 14:55:00,
2013-10-05 10:00:00,77.5,74.7,29.97,East,84,1.0,1.0,91,0.00,,,0.00,587,Wunderground v.1.15,2013-10-05 15:00:00,
2013-10-05 10:06:00,78.1,74.6,29.97,East,84,1.0,5.0,89,0.00,,,0.00,529,Wunderground v.1.15,2013-10-05 15:06:00,
2013-10-05 10:11:00,78.7,74.8,29.97,ENE,65,1.0,1.0,88,0.00,,,0.00,188,Wunderground v.1.15,2013-10-05 15:11:00,
2013-10-05 10:16:00,78.9,74.7,29.97,SSE,158,1.0,5.0,87,0.00,,,0.00,691,Wunderground v.1.15,2013-10-05 15:16:00,
2013-10-05 10:21:00,79.1,74.9,29.97,ESE,121,1.0,1.0,87,0.00,,,0.00,250,Wunderground v.1.15,2013-10-05 15:21:00,
2013-10-05 10:26:00,79.3,74.7,29.97,SE,129,0.0,1.0,86,0.00,,,0.00,708,Wunderground v.1.15,2013-10-05 15:26:00,
2013-10-05 10:31:00,79.7,74.4,29.97,SSE,158,1.0,7.0,84,0.00,,,0.00,635,Wunderground v.1.15,2013-10-05 15:31:00,
2013-10-05 10:37:00,79.6,74.7,29.96,East,84,2.0,7.0,85,0.00,,,0.00,213,Wunderground v.1.15,2013-10-05 15:37:00,
2013-10-05 10:42:00,80.1,75.2,29.97,SE,135,1.0,1.0,85,0.00,,,0.00,650,Wunderground v.1.15,2013-10-05 15:42:00,
2013-10-05 10:47:00,80.9,75.6,29.96,SSE,163,0.0,1.0,84,0.00,,,0.00,158,Wunderground v.1.15,2013-10-05 15:47:00,
2013-10-05 10:53:00,81.1,75.4,29.97,SSE,150,1.0,6.0,83,0.00,,,0.00,705,Wunderground v.1.15,2013-10-05 15:53:00,
2013-10-05 10:58:00,81.3,75.3,29.96,SSE,163,1.0,6.0,82,0.00,,,0.00,715,Wunderground v.1.15,2013-10-05 15:58:00,
2013-10-05 11:03:00,81.3,74.9,29.97,SSE,167,2.0,5.0,81,0.00,,,0.00,786,Wunderground v.1.15,2013-10-05 16:03:00,
2013-10-05 11:08:00,81.3,74.5,29.96,ESE,110,1.0,5.0,80,0.00,,,0.00,209,Wunderground v.1.15,2013-10-05 16:08:00,
2013-10-05 11:13:00,81.1,74.7,29.97,SSE,150,1.0,1.0,81,0.00,,,0.00,779,Wunderground v.1.15,2013-10-05 16:13:00,
2013-10-05 11:19:00,81.5,74.7,29.96,ESE,113,0.0,4.0,80,0.00,,,0.00,197,Wunderground v.1.15,2013-10-05 16:19:00,
2013-10-05 11:24:00,81.3,73.8,29.96,SSE,150,1.0,13.0,78,0.00,,,0.00,257,Wunderground v.1.15,2013-10-05 16:24:00,
2013-10-05 11:29:00,81.4,74.3,29.96,South,171,2.0,13.0,79,0.00,,,0.00,780,Wunderground v.1.15,2013-10-05 16:29:00,
2013-10-05 11:34:00,81.8,74.6,29.96,SE,131,1.0,7.0,79,0.00,,,0.00,705,Wunderground v.1.15,2013-10-05 16:34:00,
2013-10-05 11:39:00,82.4,74.8,29.96,South,183,1.0,7.0,78,0.00,,,0.00,737,Wunderground v.1.15,2013-10-05 16:39:00,
2013-10-05 11:44:00,82.7,74.4,29.95,SE,124,1.0,7.0,76,0.00,,,0.00,740,Wunderground v.1.15,2013-10-05 16:44:00,
2013-10-05 11:49:00,82.7,74.0,29.95,South,177,1.0,7.0,75,0.00,,,0.00,195,Wunderground v.1.15,2013-10-05 16:49:00,
2013-10-05 11:54:00,82.3,74.4,29.95,SE,145,1.0,1.0,77,0.00,,,0.00,775,Wunderground v.1.15,2013-10-05 16:54:00,
2013-10-05 11:59:00,82.6,74.7,29.95,SSW,202,1.0,5.0,77,0.00,,,0.00,773,Wunderground v.1.15,2013-10-05 16:59:00,
2013-10-05 12:04:00,83.0,74.6,29.95,SSE,152,1.0,3.0,76,0.00,,,0.00,434,Wunderground v.1.15,2013-10-05 17:04:00,
2013-10-05 12:10:00,83.0,74.3,29.95,ESE,121,1.0,1.0,75,0.00,,,0.00,250,Wunderground v.1.15,2013-10-05 17:10:00,
2013-10-05 12:15:00,82.5,74.2,29.95,SE,136,1.0,4.0,76,0.00,,,0.00,128,Wunderground v.1.15,2013-10-05 17:15:00,
2013-10-05 12:20:00,82.0,74.8,29.95,SSE,152,1.0,1.0,79,0.00,,,0.01,125,Wunderground v.1.15,2013-10-05 17:20:00,
2013-10-05 12:25:00,81.1,75.1,29.95,SE,138,1.0,3.0,82,0.00,,,0.01,100,Wunderground v.1.15,2013-10-05 17:25:00,
2013-10-05 12:30:00,80.0,75.1,29.95,SE,138,0.0,0.0,85,0.00,,,0.01,116,Wunderground v.1.15,2013-10-05 17:30:00,
2013-10-05 12:35:00,79.1,75.2,29.95,SSE,147,0.0,4.0,88,0.00,,,0.01,128,Wunderground v.1.15,2013-10-05 17:35:00,
2013-10-05 12:41:00,78.7,75.2,29.95,SE,139,0.0,2.0,89,0.00,,,0.01,246,Wunderground v.1.15,2013-10-05 17:41:00,
2013-10-05 12:46:00,78.5,75.3,29.95,SE,124,0.0,4.0,90,0.00,,,0.01,278,Wunderground v.1.15,2013-10-05 17:46:00,
2013-10-05 12:51:00,78.4,74.5,29.95,SE,140,1.0,1.0,88,0.00,,,0.01,292,Wunderground v.1.15,2013-10-05 17:51:00,
2013-10-05 12:56:00,78.4,74.9,29.94,SSE,148,1.0,1.0,89,0.00,,,0.01,446,Wunderground v.1.15,2013-10-05 17:56:00,
2013-10-05 13:01:00,78.7,74.8,29.94,SE,133,0.0,0.0,88,0.00,,,0.01,420,Wunderground v.1.15,2013-10-05 18:01:00,
2013-10-05 13:06:00,79.1,74.5,29.94,South,184,0.0,0.0,86,0.00,,,0.01,445,Wunderground v.1.15,2013-10-05 18:06:00,
2013-10-05 13:11:00,79.6,74.0,29.94,ENE,58,1.0,1.0,83,0.00,,,0.01,373,Wunderground v.1.15,2013-10-05 18:11:00,
2013-10-05 13:16:00,80.2,74.6,29.93,ENE,77,1.0,2.0,83,0.00,,,0.01,413,Wunderground v.1.15,2013-10-05 18:16:00,
2013-10-05 13:21:00,80.6,74.6,29.93,East,82,0.0,0.0,82,0.00,,,0.01,475,Wunderground v.1.15,2013-10-05 18:21:00,
2013-10-05 13:27:00,80.9,74.9,29.92,SE,144,0.0,1.0,82,0.00,,,0.01,320,Wunderground v.1.15,2013-10-05 18:27:00,
2013-10-05 13:32:00,81.1,74.7,29.92,East,101,0.0,0.0,81,0.00,,,0.01,543,Wunderground v.1.15,2013-10-05 18:32:00,
2013-10-05 13:37:00,81.1,74.3,29.92,East,84,0.0,0.0,80,0.00,,,0.01,308,Wunderground v.1.15,2013-10-05 18:37:00,
2013-10-05 13:42:00,80.9,74.5,29.92,East,94,0.0,3.0,81,0.00,,,0.01,327,Wunderground v.1.15,2013-10-05 18:42:00,
2013-10-05 13:47:00,80.9,74.9,29.91,SE,143,0.0,3.0,82,0.00,,,0.01,795,Wunderground v.1.15,2013-10-05 18:47:00,
2013-10-05 13:52:00,81.4,75.0,29.91,SE,131,0.0,1.0,81,0.00,,,0.01,689,Wunderground v.1.15,2013-10-05 18:52:00,
2013-10-05 13:57:00,81.9,75.1,29.91,ESE,107,1.0,2.0,80,0.00,,,0.01,696,Wunderground v.1.15,2013-10-05 18:57:00,
2013-10-05 14:02:00,82.3,75.1,29.90,SE,131,1.0,1.0,79,0.00,,,0.01,842,Wunderground v.1.15,2013-10-05 19:02:00,
2013-10-05 14:07:00,82.4,75.2,29.90,SSE,148,1.0,4.0,79,0.00,,,0.01,297,Wunderground v.1.15,2013-10-05 19:07:00,
2013-10-05 14:12:00,82.3,74.7,29.90,SE,142,2.0,2.0,78,0.00,,,0.01,195,Wunderground v.1.15,2013-10-05 19:12:00,
2013-10-05 14:17:00,82.0,74.8,29.90,SE,142,1.0,2.0,79,0.00,,,0.01,95,Wunderground v.1.15,2013-10-05 19:17:00,
2013-10-05 14:23:00,80.9,75.6,29.90,ESE,122,0.0,1.0,84,0.81,,,0.13,81,Wunderground v.1.15,2013-10-05 19:23:00,
2013-10-05 14:28:00,79.5,75.6,29.90,ESE,123,0.0,1.0,88,0.18,,,0.15,301,Wunderground v.1.15,2013-10-05 19:28:00,
2013-10-05 14:33:00,79.0,76.1,29.90,ESE,123,0.0,0.0,91,0.07,,,0.15,258,Wunderground v.1.15,2013-10-05 19:33:00,
2013-10-05 14:39:00,78.9,76.7,29.89,ESE,123,0.0,0.0,93,0.04,,,0.15,260,Wunderground v.1.15,2013-10-05 19:39:00,
2013-10-05 14:44:00,79.0,76.8,29.88,ESE,123,0.0,0.0,93,0.00,,,0.15,835,Wunderground v.1.15,2013-10-05 19:44:00,
2013-10-05 14:49:00,79.1,76.9,29.89,ESE,116,0.0,0.0,93,0.00,,,0.15,276,Wunderground v.1.15,2013-10-05 19:49:00,
2013-10-05 14:55:00,79.2,76.7,29.88,ESE,114,0.0,0.0,92,0.00,,,0.15,214,Wunderground v.1.15,2013-10-05 19:55:00,
2013-10-05 15:00:00,79.3,76.8,29.88,East,94,0.0,0.0,92,0.00,,,0.15,186,Wunderground v.1.15,2013-10-05 20:00:00,
2013-10-05 15:06:00,79.5,76.6,29.88,ESE,117,0.0,0.0,91,0.00,,,0.15,784,Wunderground v.1.15,2013-10-05 20:06:00,
2013-10-05 15:11:00,79.7,76.2,29.88,ENE,61,0.0,1.0,89,0.00,,,0.15,761,Wunderground v.1.15,2013-10-05 20:11:00,
2013-10-05 15:16:00,80.2,77.3,29.88,ESE,102,1.0,2.0,91,0.00,,,0.15,619,Wunderground v.1.15,2013-10-05 20:16:00,
2013-10-05 15:21:00,80.6,76.7,29.88,ESE,115,1.0,1.0,88,0.00,,,0.15,584,Wunderground v.1.15,2013-10-05 20:21:00,
2013-10-05 15:26:00,80.9,76.0,29.88,SE,133,1.0,1.0,85,0.00,,,0.15,570,Wunderground v.1.15,2013-10-05 20:26:00,
2013-10-05 15:31:00,81.2,74.4,29.88,South,171,0.0,0.0,80,0.00,,,0.15,577,Wunderground v.1.15,2013-10-05 20:31:00,
2013-10-05 15:36:00,81.7,75.7,29.88,South,169,0.0,3.0,82,0.00,,,0.15,575,Wunderground v.1.15,2013-10-05 20:36:00,
2013-10-05 15:41:00,81.8,73.5,29.88,ESE,113,1.0,6.0,76,0.00,,,0.15,633,Wunderground v.1.15,2013-10-05 20:41:00,
2013-10-05 15:46:00,81.8,73.9,29.87,ESE,121,2.0,6.0,77,0.00,,,0.15,589,Wunderground v.1.15,2013-10-05 20:46:00,
2013-10-05 15:51:00,81.8,75.4,29.87,ESE,111,1.0,1.0,81,0.00,,,0.15,141,Wunderground v.1.15,2013-10-05 20:51:00,
2013-10-05 15:56:00,81.7,74.5,29.87,SE,134,1.0,1.0,79,0.00,,,0.15,475,Wunderground v.1.15,2013-10-05 20:56:00,
2013-10-05 16:02:00,81.7,74.2,29.87,SE,134,0.0,0.0,78,0.00,,,0.15,149,Wunderground v.1.15,2013-10-05 21:02:00,
2013-10-05 16:08:00,81.6,75.6,29.87,SE,134,0.0,2.0,82,0.00,,,0.15,70,Wunderground v.1.15,2013-10-05 21:08:00,
2013-10-05 16:13:00,81.1,73.6,29.87,SE,125,0.0,0.0,78,0.00,,,0.15,63,Wunderground v.1.15,2013-10-05 21:13:00,
2013-10-05 16:18:00,80.6,73.9,29.87,SE,136,0.0,0.0,80,0.00,,,0.15,105,Wunderground v.1.15,2013-10-05 21:18:00,
2013-10-05 16:24:00,80.4,73.7,29.87,SE,135,0.0,0.0,80,0.00,,,0.15,169,Wunderground v.1.15,2013-10-05 21:24:00,
2013-10-05 16:29:00,80.6,74.6,29.86,SE,140,0.0,0.0,82,0.00,,,0.15,485,Wunderground v.1.15,2013-10-05 21:29:00,
2013-10-05 16:34:00,81.1,74.0,29.86,SE,125,0.0,7.0,79,0.00,,,0.15,397,Wunderground v.1.15,2013-10-05 21:34:00,
2013-10-05 16:39:00,81.6,73.7,29.86,SE,142,1.0,7.0,77,0.00,,,0.15,318,Wunderground v.1.15,2013-10-05 21:39:00,
2013-10-05 16:44:00,81.9,73.6,29.86,South,186,1.0,1.0,76,0.00,,,0.15,151,Wunderground v.1.15,2013-10-05 21:44:00,
2013-10-05 16:50:00,81.8,73.5,29.86,SE,127,0.0,0.0,76,0.00,,,0.15,135,Wunderground v.1.15,2013-10-05 21:50:00,
2013-10-05 16:56:00,81.5,73.2,29.86,ESE,123,1.0,5.0,76,0.00,,,0.15,230,Wunderground v.1.15,2013-10-05 21:56:00,
2013-10-05 17:01:00,81.4,73.1,29.87,SSE,160,1.0,1.0,76,0.00,,,0.15,83,Wunderground v.1.15,2013-10-05 22:01:00,
2013-10-05 17:06:00,81.2,73.7,29.87,SSE,159,0.0,1.0,78,0.00,,,0.15,171,Wunderground v.1.15,2013-10-05 22:06:00,
2013-10-05 17:12:00,81.0,74.2,29.86,SE,142,0.0,0.0,80,0.00,,,0.15,229,Wunderground v.1.15,2013-10-05 22:12:00,
2013-10-05 17:17:00,80.9,73.4,29.86,SE,142,0.0,0.0,78,0.00,,,0.15,105,Wunderground v.1.15,2013-10-05 22:17:00,
2013-10-05 17:22:00,80.8,72.9,29.86,SSE,159,0.0,0.0,77,0.00,,,0.15,111,Wunderground v.1.15,2013-10-05 22:22:00,
2013-10-05 17:27:00,80.5,73.0,29.86,SSE,161,0.0,1.0,78,0.00,,,0.15,128,Wunderground v.1.15,2013-10-05 22:27:00,
2013-10-05 17:33:00,80.3,72.8,29.86,SSE,161,0.0,0.0,78,0.00,,,0.15,127,Wunderground v.1.15,2013-10-05 22:33:00,
2013-10-05 17:38:00,80.3,72.8,29.86,SSE,159,0.0,0.0,78,0.00,,,0.15,176,Wunderground v.1.15,2013-10-05 22:38:00,
2013-10-05 17:43:00,80.4,73.3,29.86,SSE,159,0.0,0.0,79,0.00,,,0.15,167,Wunderground v.1.15,2013-10-05 22:43:00,
2013-10-05 17:48:00,80.5,73.4,29.85,SSE,158,0.0,0.0,79,0.00,,,0.15,125,Wunderground v.1.15,2013-10-05 22:48:00,
2013-10-05 17:54:00,80.5,73.0,29.85,SSE,158,0.0,1.0,78,0.00,,,0.15,91,Wunderground v.1.15,2013-10-05 22:54:00,
2013-10-05 17:59:00,80.4,73.7,29.85,SSE,158,0.0,1.0,80,0.00,,,0.15,86,Wunderground v.1.15,2013-10-05 22:59:00,
2013-10-05 18:04:00,80.3,73.2,29.85,SSE,158,0.0,0.0,79,0.00,,,0.15,46,Wunderground v.1.15,2013-10-05 23:04:00,
2013-10-05 18:09:00,80.1,73.4,29.85,SSE,158,0.0,0.0,80,0.00,,,0.15,35,Wunderground v.1.15,2013-10-05 23:09:00,
2013-10-05 18:14:00,79.8,73.1,29.85,SE,140,0.0,0.0,80,0.00,,,0.15,28,Wunderground v.1.15,2013-10-05 23:14:00,
2013-10-05 18:20:00,79.5,73.2,29.86,SE,141,0.0,0.0,81,0.00,,,0.15,23,Wunderground v.1.15,2013-10-05 23:20:00,
2013-10-05 18:25:00,79.2,72.9,29.85,SE,141,0.0,0.0,81,0.00,,,0.15,18,Wunderground v.1.15,2013-10-05 23:25:00,
2013-10-05 18:30:00,78.9,72.6,29.86,SE,142,0.0,0.0,81,0.00,,,0.15,12,Wunderground v.1.15,2013-10-05 23:30:00,
2013-10-05 18:35:00,78.7,72.4,29.86,South,171,0.0,0.0,81,0.00,,,0.15,9,Wunderground v.1.15,2013-10-05 23:35:00,
2013-10-05 18:41:00,78.6,72.3,29.86,South,169,0.0,0.0,81,0.00,,,0.15,5,Wunderground v.1.15,2013-10-05 23:41:00,
2013-10-05 18:46:00,78.3,71.6,29.86,South,169,0.0,0.0,80,0.00,,,0.15,0,Wunderground v.1.15,2013-10-05 23:46:00,
2013-10-05 18:51:00,78.0,72.1,29.86,SSW,200,0.0,0.0,82,0.00,,,0.15,0,Wunderground v.1.15,2013-10-05 23:51:00,
2013-10-05 18:57:00,77.7,71.4,29.87,SSW,198,0.0,0.0,81,0.00,,,0.15,0,Wunderground v.1.15,2013-10-05 23:57:00,
2013-10-05 19:02:00,77.5,71.2,29.87,SE,144,0.0,0.0,81,0.00,,,0.15,0,Wunderground v.1.15,2013-10-06 00:02:00,
2013-10-05 19:08:00,77.2,71.3,29.87,South,177,0.0,0.0,82,0.00,,,0.15,0,Wunderground v.1.15,2013-10-06 00:08:00,
2013-10-05 19:13:00,77.0,70.7,29.87,SSE,153,0.0,0.0,81,0.00,,,0.15,0,Wunderground v.1.15,2013-10-06 00:13:00,
2013-10-05 19:18:00,76.8,70.5,29.88,SSE,154,0.0,0.0,81,0.00,,,0.15,0,Wunderground v.1.15,2013-10-06 00:18:00,
2013-10-05 19:23:00,76.6,70.7,29.88,SSE,154,0.0,0.0,82,0.00,,,0.15,0,Wunderground v.1.15,2013-10-06 00:23:00,
2013-10-05 19:28:00,76.5,70.6,29.88,SSE,153,0.0,0.0,82,0.00,,,0.15,0,Wunderground v.1.15,2013-10-06 00:28:00,
2013-10-05 19:33:00,76.3,70.8,29.88,SSE,153,0.0,0.0,83,0.00,,,0.15,0,Wunderground v.1.15,2013-10-06 00:33:00,
2013-10-05 19:39:00,76.2,70.7,29.88,SSE,154,0.0,0.0,83,0.00,,,0.15,0,Wunderground v.1.15,2013-10-06 00:39:00,
2013-10-05 19:44:00,76.0,70.5,29.88,SSE,153,0.0,0.0,83,0.00,,,0.15,0,Wunderground v.1.15,2013-10-06 00:44:00,
2013-10-05 19:49:00,75.8,71.3,29.89,SSE,158,0.0,0.0,86,0.00,,,0.15,0,Wunderground v.1.15,2013-10-06 00:49:00,
2013-10-05 19:54:00,75.7,71.2,29.89,SSE,158,0.0,0.0,86,0.00,,,0.15,0,Wunderground v.1.15,2013-10-06 00:54:00,
2013-10-05 19:59:00,75.5,71.0,29.89,SSE,158,0.0,0.0,86,0.00,,,0.15,0,Wunderground v.1.15,2013-10-06 00:59:00,
2013-10-05 20:04:00,75.3,70.8,29.89,SSE,158,0.0,0.0,86,0.00,,,0.15,0,Wunderground v.1.15,2013-10-06 01:04:00,
2013-10-05 20:09:00,75.2,70.7,29.90,SSE,158,0.0,0.0,86,0.00,,,0.15,0,Wunderground v.1.15,2013-10-06 01:09:00,
2013-10-05 20:15:00,75.0,70.9,29.90,SSE,158,0.0,0.0,87,0.00,,,0.15,0,Wunderground v.1.15,2013-10-06 01:15:00,
2013-10-05 20:20:00,74.7,70.6,29.90,SSE,158,0.0,0.0,87,0.00,,,0.15,0,Wunderground v.1.15,2013-10-06 01:20:00,
2013-10-05 20:25:00,74.4,70.3,29.90,SSE,158,0.0,0.0,87,0.00,,,0.15,0,Wunderground v.1.15,2013-10-06 01:25:00,
2013-10-05 20:31:00,74.2,70.4,29.90,SSE,158,0.0,0.0,88,0.00,,,0.15,0,Wunderground v.1.15,2013-10-06 01:31:00,
2013-10-05 20:36:00,74.0,70.9,29.90,SSE,158,0.0,0.0,90,0.00,,,0.15,0,Wunderground v.1.15,2013-10-06 01:36:00,
2013-10-05 20:41:00,73.8,71.0,29.90,SSE,158,0.0,0.0,91,0.00,,,0.15,0,Wunderground v.1.15,2013-10-06 01:41:00,
2013-10-05 20:46:00,73.8,71.0,29.91,SSE,158,0.0,0.0,91,0.00,,,0.15,0,Wunderground v.1.15,2013-10-06 01:46:00,
2013-10-05 20:52:00,73.8,71.0,29.91,SSE,164,0.0,0.0,91,0.00,,,0.15,0,Wunderground v.1.15,2013-10-06 01:52:00,
2013-10-05 20:57:00,73.7,70.9,29.91,SSE,164,0.0,0.0,91,0.00,,,0.15,0,Wunderground v.1.15,2013-10-06 01:57:00,
2013-10-05 21:02:00,73.7,70.9,29.91,SSE,164,0.0,0.0,91,0.00,,,0.15,0,Wunderground v.1.15,2013-10-06 02:02:00,
2013-10-05 21:07:00,73.6,70.8,29.91,SSE,164,0.0,0.0,91,0.00,,,0.15,0,Wunderground v.1.15,2013-10-06 02:07:00,
2013-10-05 21:13:00,73.6,70.8,29.91,SSE,164,0.0,0.0,91,0.00,,,0.15,0,Wunderground v.1.15,2013-10-06 02:13:00,
2013-10-05 21:18:00,73.5,70.7,29.91,SSE,164,0.0,0.0,91,0.00,,,0.15,0,Wunderground v.1.15,2013-10-06 02:18:00,
2013-10-05 21:23:00,73.4,70.6,29.91,SSE,164,0.0,0.0,91,0.00,,,0.15,0,Wunderground v.1.15,2013-10-06 02:23:00,
2013-10-05 21:29:00,73.3,70.8,29.90,SSE,164,0.0,0.0,92,0.00,,,0.15,0,Wunderground v.1.15,2013-10-06 02:29:00,
2013-10-05 21:34:00,73.3,71.2,29.90,SSE,164,0.0,0.0,93,0.00,,,0.15,0,Wunderground v.1.15,2013-10-06 02:34:00,
2013-10-05 21:39:00,73.1,71.0,29.90,SSE,164,0.0,0.0,93,0.00,,,0.15,0,Wunderground v.1.15,2013-10-06 02:39:00,
2013-10-05 21:44:00,73.0,70.9,29.90,SSE,164,0.0,0.0,93,0.00,,,0.15,0,Wunderground v.1.15,2013-10-06 02:44:00,
2013-10-05 21:49:00,72.8,70.7,29.90,SSE,164,0.0,0.0,93,0.00,,,0.15,0,Wunderground v.1.15,2013-10-06 02:49:00,
2013-10-05 21:55:00,72.7,70.6,29.90,SSE,164,0.0,0.0,93,0.00,,,0.15,0,Wunderground v.1.15,2013-10-06 02:55:00,
2013-10-05 22:01:00,72.6,70.5,29.90,SSE,164,0.0,0.0,93,0.00,,,0.15,0,Wunderground v.1.15,2013-10-06 03:01:00,
2013-10-05 22:06:00,72.5,70.4,29.90,SSE,164,0.0,0.0,93,0.00,,,0.15,0,Wunderground v.1.15,2013-10-06 03:06:00,
2013-10-05 22:11:00,72.5,70.7,29.90,SSE,164,0.0,0.0,94,0.00,,,0.15,0,Wunderground v.1.15,2013-10-06 03:11:00,
2013-10-05 22:17:00,72.4,70.6,29.89,SSE,164,0.0,0.0,94,0.00,,,0.15,0,Wunderground v.1.15,2013-10-06 03:17:00,
2013-10-05 22:22:00,72.2,70.4,29.89,SSE,164,0.0,0.0,94,0.00,,,0.15,0,Wunderground v.1.15,2013-10-06 03:22:00,
2013-10-05 22:27:00,72.1,70.3,29.89,SSE,164,0.0,0.0,94,0.00,,,0.15,0,Wunderground v.1.15,2013-10-06 03:27:00,
2013-10-05 22:33:00,71.9,70.1,29.89,SSE,164,0.0,0.0,94,0.00,,,0.15,0,Wunderground v.1.15,2013-10-06 03:33:00,
2013-10-05 22:38:00,71.8,70.0,29.89,SSE,164,0.0,0.0,94,0.00,,,0.15,0,Wunderground v.1.15,2013-10-06 03:38:00,
2013-10-05 22:43:00,71.8,70.3,29.89,SSE,164,0.0,0.0,95,0.00,,,0.15,0,Wunderground v.1.15,2013-10-06 03:43:00,
2013-10-05 22:48:00,71.7,70.2,29.89,SSE,164,0.0,0.0,95,0.00,,,0.15,0,Wunderground v.1.15,2013-10-06 03:48:00,
2013-10-05 22:54:00,71.6,70.1,29.89,SSE,164,0.0,0.0,95,0.00,,,0.15,0,Wunderground v.1.15,2013-10-06 03:54:00,
2013-10-05 22:59:00,71.5,70.0,29.89,SSE,164,0.0,0.0,95,0.00,,,0.15,0,Wunderground v.1.15,2013-10-06 03:59:00,
2013-10-05 23:02:00,71.5,70.0,29.88,SSE,164,0.0,0.0,95,0.00,,,0.15,0,Wunderground v.1.15,2013-10-06 04:02:00,
2013-10-05 23:03:00,71.5,70.0,29.89,SSE,164,0.0,0.0,95,0.00,,,0.15,0,Wunderground v.1.15,2013-10-06 04:03:00,
2013-10-05 23:04:00,71.5,70.0,29.89,SSE,164,0.0,0.0,95,0.00,,,0.15,0,Wunderground v.1.15,2013-10-06 04:04:00,
2013-10-05 23:08:00,71.4,69.9,29.89,SSE,164,0.0,0.0,95,0.00,,,0.15,0,Wunderground v.1.15,2013-10-06 04:08:00,
2013-10-05 23:09:00,71.3,69.8,29.88,SSE,164,0.0,0.0,95,0.00,,,0.15,0,Wunderground v.1.15,2013-10-06 04:09:00,
2013-10-05 23:10:00,71.3,69.8,29.88,SSE,164,0.0,0.0,95,0.00,,,0.15,0,Wunderground v.1.15,2013-10-06 04:10:00,
2013-10-05 23:15:00,71.3,70.1,29.88,SSE,164,0.0,0.0,96,0.00,,,0.15,0,Wunderground v.1.15,2013-10-06 04:15:00,
2013-10-05 23:20:00,71.3,70.1,29.88,SSE,164,0.0,0.0,96,0.00,,,0.15,0,Wunderground v.1.15,2013-10-06 04:20:00,
2013-10-05 23:26:00,71.3,70.1,29.88,SSE,164,0.0,0.0,96,0.00,,,0.15,0,Wunderground v.1.15,2013-10-06 04:26:00,
2013-10-05 23:31:00,71.3,70.1,29.88,SSE,164,0.0,0.0,96,0.00,,,0.15,0,Wunderground v.1.15,2013-10-06 04:31:00,
2013-10-05 23:36:00,71.3,70.1,29.88,SSE,164,0.0,1.0,96,0.00,,,0.15,0,Wunderground v.1.15,2013-10-06 04:36:00,
2013-10-05 23:41:00,71.3,70.1,29.88,SSE,164,0.0,0.0,96,0.00,,,0.15,0,Wunderground v.1.15,2013-10-06 04:41:00,
2013-10-05 23:47:00,71.4,70.2,29.87,SSE,164,0.0,0.0,96,0.00,,,0.15,0,Wunderground v.1.15,2013-10-06 04:47:00,
2013-10-05 23:52:00,71.4,70.2,29.87,SSE,164,0.0,0.0,96,0.00,,,0.15,0,Wunderground v.1.15,2013-10-06 04:52:00,
2013-10-05 23:58:00,71.4,70.5,29.87,SSE,164,0.0,0.0,97,0.00,,,0.15,0,Wunderground v.1.15,2013-10-06 04:58:00,